This is the latest recevied weather packets stored in our database for station/object N6SPP. If no packets are shown the sender has not sent any weather packets the latest 10 day(s).
| Time | Temp. | Humidity | Pressure | Rain* | Wind** | Luminosity | Snow |
|---|---|---|---|---|---|---|---|
| 1777385472 | 12.22° C | 78% | 1021.4 hPa | 0 mm | - | 55 W/m² | - |
| 1777385169 | 12.22° C | 78% | 1021.3 hPa | 0 mm | - | 48 W/m² | - |
| 1777384864 | 11.67° C | 79% | 1021.5 hPa | 0 mm | - | 41 W/m² | - |
| 1777384562 | 11.11° C | 80% | 1021.2 hPa | 0 mm | - | 35 W/m² | - |
| 1777384251 | 11.11° C | 80% | 1021.4 hPa | 0 mm | - | 29 W/m² | - |
| 1777383947 | 11.11° C | 80% | 1021.1 hPa | 0 mm | - | 24 W/m² | - |
| 1777383643 | 11.11° C | 79% | 1021.2 hPa | 0 mm | - | 20 W/m² | - |
| 1777383340 | 11.11° C | 79% | 1021 hPa | 0 mm | - | 15 W/m² | - |
| 1777383036 | 11.11° C | 80% | 1021 hPa | 0 mm | - | 12 W/m² | - |
| 1777382733 | 10.56° C | 81% | 1021.1 hPa | 0 mm | - | 8 W/m² | - |
| 1777382428 | 10.56° C | 82% | 1020.8 hPa | 0 mm | - | 5 W/m² | - |
| 1777382125 | 10.56° C | 81% | 1020.9 hPa | 0 mm | - | 3 W/m² | - |
| 1777381821 | 10.56° C | 82% | 1020.9 hPa | 0 mm | - | 2 W/m² | - |
| 1777381515 | 10.56° C | 82% | 1020.7 hPa | 0 mm | - | 1 W/m² | - |
| 1777381211 | 10.56° C | 81% | 1020.8 hPa | 0 mm | - | 0 W/m² | - |
| 1777380909 | 10° C | 81% | 1020.7 hPa | 0 mm | - | 0 W/m² | - |
| 1777380605 | 10.56° C | 81% | 1020.7 hPa | 0 mm | - | 0 W/m² | - |
| 1777380301 | 10° C | 81% | 1020.7 hPa | 0 mm | - | 0 W/m² | - |
| 1777379997 | 10.56° C | 81% | 1020.8 hPa | 0 mm | - | 0 W/m² | - |
| 1777379693 | 10.56° C | 81% | 1020.7 hPa | 0 mm | - | 0 W/m² | - |
| 1777379389 | 10° C | 81% | 1020.7 hPa | 0 mm | - | 0 W/m² | - |
| 1777379084 | 10.56° C | 80% | 1020.6 hPa | 0 mm | - | 0 W/m² | - |
| 1777378779 | 10.56° C | 78% | 1020.7 hPa | 0 mm | - | 0 W/m² | - |
| 1777378477 | 11.11° C | 78% | 1020.3 hPa | 0 mm | - | 0 W/m² | - |
| 1777378172 | 11.11° C | 78% | 1020.4 hPa | 0 mm | - | 0 W/m² | - |
* Rain latest hour (hover to see other rain measurements)
** Current wind speed in m/s (hover to see current wind gust speed)